[[{"header":{"parameterUnit":"m.s-1","parameterCategory":2,"la1":30.2991,"la2":30.254,"lo1":-89.0895,"lo2":-89.0444,"dy":0.0017,"dx":0.0017,"nx":28,"ny":28,"refTime":"2025-09-01T03:00:00:Z","depth":"0","parameterNumber":2,"parameterNumberName":"U-component_of_CURRENTS"},"data":[0,0,0,0,0,0,0,0,0,0,0,0,0,0,0,0,0,0,0,0,0,0,0,0,0,0,0,0,0,0,0,0,0,0,0,0,0,0,0,0,0,0,0,0,0,0,0,0,0,0,0,0,0,0,0,0,0,0,-0.2723,-0.2723,0,-0.2756,-0.2757,-0.2757,-0.2757,-0.2757,-0.2757,-0.2757,-0.2631,-0.2628,-0.2625,0,0,0,0,0,0,0,0,0,0,0,0,0,-0.2659,-0.266,-0.2723,-0.2723,-0.2724,-0.2756,-0.2757,-0.2757,-0.2757,-0.2757,-0.2757,-0.2757,-0.2632,-0.2628,-0.2624,0,0,0,0,0,0,0,0,0,0,0,0,0,-0.2686,-0.266,-0.2722,-0.273,-0.2732,-0.2756,-0.2757,-0.2757,-0.2758,-0.2757,-0.2757,-0.2757,-0.2633,-0.2628,-0.2624,-0.2599,0,0,-0.2609,-0.2607,0,0,0,0,0,0,0,0,-0.2685,-0.2688,-0.2729,-0.273,-0.2731,-0.2755,-0.2688,-0.2697,-0.2758,-0.2745,-0.2757,-0.2757,-0.2659,-0.2653,-0.2658,-0.2593,-0.2587,-0.2609,-0.2606,-0.2604,-0.2602,0,0,0,0,0,0,0,-0.2683,-0.2687,-0.2733,-0.2729,-0.2731,-0.2732,-0.2736,-0.269,-0.2698,-0.2746,-0.2747,-0.2755,-0.2659,-0.2663,-0.2654,-0.2586,-0.2609,-0.2604,-0.2601,-0.26,-0.2518,-0.2519,0,0,0,0,0,0,-0.2685,-0.2685,-0.2732,-0.2734,-0.271,-0.2734,-0.2738,-0.2745,-0.2702,-0.2697,-0.2755,-0.2755,-0.2671,-0.266,-0.265,-0.2631,-0.2604,-0.2599,-0.2596,-0.2518,-0.2519,-0.2519,0,0,0,0,0,0,-0.2683,-0.2689,-0.2731,-0.2713,-0.2718,-0.2736,-0.2744,-0.2746,-0.275,-0.2711,-0.2703,-0.2757,-0.267,-0.2656,-0.2627,-0.2625,-0.2597,-0.2593,-0.2517,-0.2518,-0.2519,-0.2583,0,0,0,0,0,0,-0.2681,-0.2688,-0.2686,-0.2713,-0.272,-0.2744,-0.2745,-0.2747,-0.2757,-0.2757,-0.271,-0.2698,-0.2669,-0.2634,-0.2622,-0.2618,-0.2589,-0.2516,-0.2517,-0.2519,-0.258,-0.2586,-0.2591,0,0,0,0,0,-0.2679,-0.2678,-0.2685,-0.2691,-0.2719,-0.2744,-0.2747,-0.2757,-0.2757,-0.2759,-0.2741,-0.27,-0.2634,-0.2631,-0.2616,-0.2611,-0.2515,-0.2517,-0.2519,-0.2577,-0.2585,-0.2591,0,0,0,0,0,0,-0.2637,-0.268,-0.2688,-0.2696,-0.2719,-0.2745,-0.2747,-0.2758,-0.2748,-0.2743,-0.2706,-0.2694,-0.2667,-0.2633,-0.2631,-0.2594,-0.2568,-0.2567,-0.2618,-0.2624,-0.263,-0.2624,-0.2585,0,0,0,0,0,-0.2632,-0.2648,-0.2683,-0.2688,-0.2701,-0.2725,-0.2734,-0.2745,-0.2747,-0.2744,-0.2718,-0.2688,-0.2663,-0.2641,-0.261,-0.2583,-0.2571,-0.2572,-0.2578,-0.2583,-0.2569,-0.2584,-0.259,-0.2525,-0.2525,-0.2525,0,0,-0.2615,-0.2641,-0.2647,-0.2681,-0.2699,-0.2721,-0.2728,-0.2747,-0.2759,-0.2727,-0.2721,-0.2701,-0.2662,-0.2644,-0.2628,-0.2614,-0.2597,-0.2585,-0.2589,-0.2573,-0.2586,-0.2593,-0.2598,-0.2526,-0.2526,-0.2526,0,0,-0.2599,-0.2616,-0.2629,-0.2655,-0.2691,-0.2711,-0.2718,-0.2748,-0.2752,-0.2752,-0.2739,-0.2724,-0.2679,-0.2664,-0.2646,-0.266,-0.2629,-0.2649,-0.2667,-0.2682,-0.2688,-0.2692,-0.2695,-0.2699,-0.2651,-0.2651,-0.2651,0,-0.2572,-0.2602,-0.2632,-0.2658,-0.2683,-0.2709,-0.2732,-0.2741,-0.2756,-0.2766,-0.2752,-0.2733,-0.2687,-0.2686,-0.2686,-0.267,-0.2675,-0.2645,-0.269,-0.2694,-0.2698,-0.27,-0.2703,-0.2654,-0.2654,-0.2654,-0.2653,0,-0.2577,-0.26,-0.2611,-0.2657,-0.2685,-0.2707,-0.2742,-0.2758,-0.2768,-0.2783,-0.2789,-0.2758,-0.2747,-0.2734,-0.2701,-0.271,-0.2705,-0.27,-0.2675,-0.2709,-0.2708,-0.2711,-0.2659,-0.2658,-0.2657,-0.2656,0,0,-0.2516,-0.2598,-0.26,-0.2635,-0.2692,-0.2719,-0.2746,-0.2787,-0.2819,-0.2816,-0.2854,-0.2804,-0.2802,-0.2781,-0.2759,-0.2757,-0.2774,-0.2733,-0.2733,-0.2738,-0.2808,-0.267,-0.266,-0.2789,-0.279,-0.2791,-0.2801,0,-0.2507,-0.2554,-0.2605,-0.2653,-0.2682,-0.2738,-0.2773,-0.2812,-0.2839,-0.2878,-0.2863,-0.2873,-0.2818,-0.282,-0.2811,-0.2785,-0.2783,-0.277,-0.277,-0.2769,-0.2645,-0.2658,-0.2538,-0.2525,-0.2804,-0.2804,-0.2805,0,-0.2493,-0.2533,-0.257,-0.2675,-0.2696,-0.2727,-0.2811,-0.2847,-0.2906,-0.2929,-0.2947,-0.2948,-0.2932,-0.2891,-0.2863,-0.2863,-0.2827,-0.2808,-0.2809,-0.2652,-0.2635,-0.2533,-0.2519,-0.2499,-0.2809,-0.2808,-0.2808,0,-0.243,-0.2517,-0.2548,-0.2577,-0.2681,-0.2715,-0.2774,-0.2848,-0.2865,-0.2956,-0.2959,-0.3002,-0.2962,-0.297,-0.2874,-0.2891,-0.2842,-0.2872,-0.2722,-0.2713,-0.2589,-0.2566,-0.2548,-0.2857,-0.2857,-0.2857,-0.2857,0,-0.2399,-0.243,-0.252,-0.2533,-0.2575,-0.2684,-0.2726,-0.2799,-0.2873,-0.2872,-0.2958,-0.2933,-0.297,-0.2932,-0.2912,-0.2789,-0.2867,-0.2711,-0.27,-0.2607,-0.2586,-0.2542,-0.2563,-0.2858,-0.2858,-0.2857,-0.2857,0,-0.2318,-0.2372,-0.241,-0.2512,-0.2531,-0.256,-0.2641,-0.2668,-0.2769,-0.2767,-0.2782,-0.2845,-0.2812,-0.2826,-0.2816,-0.2763,-0.2666,-0.2663,-0.2533,-0.2504,-0.2354,-0.2382,-0.2319,-0.2257,-0.2545,-0.2542,-0.2539,0,-0.228,-0.2288,-0.2348,-0.2328,-0.2361,-0.241,-0.2421,-0.2564,-0.258,-0.2671,-0.264,-0.2652,-0.261,-0.2563,-0.2529,-0.2506,-0.25,-0.2352,-0.2347,-0.2305,-0.2333,-0.2358,-0.2315,-0.2233,-0.2227,-0.2223,-0.222,0,-0.2193,-0.2205,-0.2214,-0.2176,-0.2169,-0.2191,-0.2232,-0.2231,-0.2375,-0.2387,-0.2393,-0.2398,-0.2367,-0.2291,-0.2249,-0.2218,-0.2285,-0.2259,-0.2268,-0.2107,-0.2085,-0.2032,-0.2273,-0.2182,-0.2186,-0.2189,-0.2191,-0.2192,-0.2091,-0.2065,-0.2043,-0.2005,-0.1987,-0.1967,-0.1943,-0.2002,-0.2011,-0.204,-0.2117,-0.2102,-0.2097,-0.2035,-0.1998,-0.1893,-0.1986,-0.186,-0.1909,-0.1947,-0.1838,-0.1964,-0.182,-0.1821,-0.1823,-0.1824,-0.1825,0,-0.1958,-0.1928,-0.1873,-0.1817,-0.1746,-0.18,-0.1796,-0.1766,-0.1733,-0.18,-0.1805,-0.1812,-0.1725,-0.1744,-0.1666,-0.1592,-0.159,-0.1561,-0.1609,-0.1591,-0.1741,-0.1674,-0.1426,-0.1426,-0.1427,-0.1427,-0.1427,-0.1427,-0.1873,-0.1778,-0.1757,-0.1587,-0.1546,-0.1439,-0.1415,-0.1396,-0.1423,-0.1418,-0.1465,-0.1547,-0.1566,-0.164,-0.1528,-0.1452,-0.1452,-0.1377,-0.1435,-0.1588,-0.1622,-0.1654,-0.1595,-0.1335,-0.1335,-0.1223,-0.1223,-0.1222]},{"header":{"parameterUnit":"m.s-1","parameterCategory":2,"la1":30.2991,"la2":30.254,"lo1":-89.0895,"lo2":-89.0444,"dy":0.0017,"dx":0.0017,"nx":28,"ny":28,"refTime":"2025-09-01T03:00:00:Z","depth":"0","parameterNumber":3,"parameterNumberName":"V-component_of_CURRENTS"},"data":[0,0,0,0,0,0,0,0,0,0,0,0,0,0,0,0,0,0,0,0,0,0,0,0,0,0,0,0,0,0,0,0,0,0,0,0,0,0,0,0,0,0,0,0,0,0,0,0,0,0,0,0,0,0,0,0,0,0,-0.0447,-0.0446,0,-0.0437,-0.0437,-0.0437,-0.0493,-0.0495,-0.0496,-0.0497,-0.0525,-0.0524,-0.0523,0,0,0,0,0,0,0,0,0,0,0,0,0,-0.055,-0.0548,-0.0447,-0.0446,-0.0446,-0.0437,-0.0437,-0.0438,-0.0493,-0.0495,-0.0496,-0.0498,-0.0525,-0.0524,-0.0523,0,0,0,0,0,0,0,0,0,0,0,0,0,-0.0521,-0.0547,-0.0447,-0.0471,-0.0473,-0.0437,-0.0437,-0.0438,-0.0493,-0.0495,-0.0497,-0.0499,-0.0525,-0.0524,-0.0523,-0.0477,0,0,-0.0521,-0.052,0,0,0,0,0,0,0,0,-0.0523,-0.0518,-0.0468,-0.0469,-0.0471,-0.0467,-0.0484,-0.0452,-0.0492,-0.0488,-0.0497,-0.05,-0.0505,-0.0506,-0.0503,-0.0478,-0.048,-0.0521,-0.052,-0.052,-0.052,0,0,0,0,0,0,0,-0.0525,-0.0519,-0.0445,-0.0467,-0.0469,-0.0495,-0.0493,-0.0478,-0.0488,-0.0488,-0.0492,-0.0486,-0.0507,-0.0504,-0.0504,-0.048,-0.0521,-0.052,-0.0519,-0.0519,-0.0438,-0.0436,0,0,0,0,0,0,-0.0516,-0.052,-0.0446,-0.0445,-0.05,-0.0491,-0.0489,-0.0468,-0.0487,-0.0491,-0.0484,-0.0489,-0.0504,-0.0505,-0.0505,-0.0473,-0.052,-0.0519,-0.0519,-0.044,-0.0438,-0.0436,0,0,0,0,0,0,-0.0518,-0.0509,-0.0446,-0.0482,-0.0475,-0.0486,-0.0463,-0.0467,-0.047,-0.0483,-0.0489,-0.0485,-0.0506,-0.0506,-0.0496,-0.0474,-0.0519,-0.0518,-0.0442,-0.0439,-0.0437,-0.0396,0,0,0,0,0,0,-0.0521,-0.0509,-0.0498,-0.048,-0.0473,-0.0431,-0.046,-0.0465,-0.0462,-0.0468,-0.0485,-0.049,-0.0507,-0.0497,-0.0495,-0.0474,-0.0517,-0.0444,-0.044,-0.0437,-0.0399,-0.0392,-0.0386,0,0,0,0,0,-0.0524,-0.051,-0.0496,-0.0488,-0.0453,-0.043,-0.0429,-0.0447,-0.046,-0.0459,-0.0468,-0.049,-0.0476,-0.0495,-0.0493,-0.0471,-0.0445,-0.0441,-0.0438,-0.0402,-0.0394,-0.0386,0,0,0,0,0,0,-0.0573,-0.0512,-0.0499,-0.0472,-0.045,-0.0439,-0.0441,-0.0439,-0.0442,-0.0452,-0.0469,-0.0473,-0.0455,-0.046,-0.0481,-0.0436,-0.0463,-0.0459,-0.0436,-0.0428,-0.0422,-0.0436,-0.0517,0,0,0,0,0,-0.0566,-0.053,-0.0487,-0.047,-0.0453,-0.044,-0.0434,-0.0436,-0.0432,-0.0437,-0.0443,-0.0444,-0.0433,-0.0432,-0.0427,-0.0398,-0.0389,-0.038,-0.0374,-0.0369,-0.0377,-0.033,-0.032,-0.0424,-0.0424,-0.0424,0,0,-0.0586,-0.0545,-0.053,-0.0476,-0.0462,-0.0442,-0.0443,-0.0429,-0.0421,-0.0436,-0.0432,-0.0421,-0.0419,-0.0396,-0.0388,-0.0402,-0.0329,-0.0364,-0.0359,-0.0371,-0.0325,-0.0315,-0.0306,-0.0421,-0.0421,-0.0422,0,0,-0.0607,-0.0562,-0.0537,-0.0508,-0.0468,-0.0451,-0.0442,-0.0415,-0.0411,-0.0389,-0.0396,-0.0368,-0.0361,-0.0347,-0.0341,-0.0288,-0.0296,-0.0285,-0.0266,-0.022,-0.0211,-0.0204,-0.0162,-0.0152,-0.0283,-0.0283,-0.0283,0,-0.0635,-0.0592,-0.0535,-0.0507,-0.0494,-0.0452,-0.0442,-0.0417,-0.0396,-0.0384,-0.039,-0.0345,-0.0336,-0.0299,-0.0283,-0.0274,-0.0256,-0.0299,-0.0212,-0.0205,-0.0198,-0.0157,-0.0146,-0.028,-0.028,-0.0281,-0.0281,0,-0.0636,-0.0603,-0.0591,-0.0531,-0.0508,-0.0492,-0.0442,-0.0419,-0.04,-0.0376,-0.0332,-0.0302,-0.0283,-0.0257,-0.0257,-0.0197,-0.0202,-0.0209,-0.0236,-0.0185,-0.0145,-0.0134,-0.0277,-0.0278,-0.0278,-0.0279,0,0,-0.0701,-0.0607,-0.0607,-0.059,-0.052,-0.051,-0.0469,-0.0425,-0.0412,-0.0357,-0.0336,-0.0273,-0.025,-0.0239,-0.0214,-0.0164,-0.0082,-0.0167,-0.0166,-0.0135,0.0017,0.0048,0.0063,-0.0078,-0.0076,-0.0075,0.0031,0,-0.0726,-0.0687,-0.0631,-0.0618,-0.0597,-0.0538,-0.0513,-0.0465,-0.0421,-0.0384,-0.0309,-0.0283,-0.0244,-0.0234,-0.0168,-0.0115,-0.0054,-0.0111,-0.0031,-0.0029,-0.0014,0.0077,0.0109,0.0208,0.0041,0.0043,0.0045,0,-0.0753,-0.0719,-0.07,-0.0655,-0.0643,-0.063,-0.0587,-0.0557,-0.0472,-0.0437,-0.0367,-0.0319,-0.0227,-0.0211,-0.0067,-0.0108,-0.0042,0.001,0.0015,0.0031,0.0023,0.0128,0.0234,0.0369,0.0061,0.006,0.0059,0,-0.0834,-0.0781,-0.0771,-0.0753,-0.0684,-0.0677,-0.0652,-0.058,-0.0557,-0.0472,-0.0448,-0.0331,-0.0288,-0.0173,-0.0047,-0.0061,0.0105,0.0096,0.0193,0.0195,0.0232,0.0234,0.0468,0.0201,0.0201,0.02,0.02,0,-0.0881,-0.088,-0.0811,-0.0805,-0.0813,-0.0748,-0.0745,-0.0697,-0.0631,-0.0604,-0.0488,-0.0442,-0.0279,-0.0164,-0.0047,0.0119,0.0112,0.0216,0.0235,0.0249,0.0252,0.0374,0.0411,0.0204,0.0203,0.0203,0.0202,0,-0.0962,-0.0912,-0.0904,-0.0852,-0.0843,-0.0854,-0.0815,-0.0805,-0.0734,-0.0693,-0.067,-0.0523,-0.0361,-0.0187,-0.0001,0.0108,0.035,0.0315,0.0322,0.0341,0.0552,0.0588,0.0799,0.0875,0.0448,0.045,0.0451,0,-0.099,-0.099,-0.0958,-0.0958,-0.0935,-0.0934,-0.0927,-0.0867,-0.0847,-0.0739,-0.0722,-0.0564,-0.043,-0.0125,0.0099,0.0335,0.0424,0.0484,0.0474,0.0597,0.0651,0.0671,0.072,0.0546,0.0548,0.055,0.0551,0,-0.1045,-0.1037,-0.1024,-0.1027,-0.1028,-0.1032,-0.1017,-0.1021,-0.0941,-0.0886,-0.078,-0.0665,-0.0357,-0.0064,0.0241,0.0381,0.059,0.0524,0.0661,0.0767,0.0795,0.0863,0.0435,0.0566,0.0564,0.0563,0.0562,0.0562,-0.1087,-0.1102,-0.1081,-0.1088,-0.1093,-0.1108,-0.1113,-0.1084,-0.1051,-0.0943,-0.083,-0.0617,-0.0198,0.025,0.041,0.0762,0.0718,0.0863,0.0902,0.0916,0.0985,0.0587,0.0726,0.0726,0.0726,0.0725,0.0725,0,-0.1124,-0.1129,-0.1138,-0.114,-0.1156,-0.1144,-0.1145,-0.1124,-0.1081,-0.0947,-0.0808,-0.0335,0.0078,0.0462,0.0952,0.1136,0.117,0.1225,0.1276,0.1311,0.0982,0.0983,0.1172,0.1172,0.1172,0.1172,0.1172,0.1171,-0.114,-0.1156,-0.1156,-0.118,-0.1184,-0.1193,-0.1192,-0.1146,-0.1043,-0.079,-0.0523,-0.0309,0.0254,0.1016,0.1458,0.1497,0.1644,0.1628,0.1704,0.1486,0.1455,0.1426,0.144,0.1722,0.1723,0.2027,0.203,0.2033]}],[{"header":{"parameterUnit":"m.s-1","parameterCategory":2,"la1":30.2991,"la2":30.254,"lo1":-89.0895,"lo2":-89.0444,"dy":0.0017,"dx":0.0017,"nx":28,"ny":28,"refTime":"2025-09-01T03:00:00:Z","depth":"2","parameterNumber":2,"parameterNumberName":"U-component_of_CURRENTS"},"data":[0,0,0,0,0,0,0,0,0,0,0,0,0,0,0,0,0,0,0,0,0,0,0,0,0,0,0,0,0,0,0,0,0,0,0,0,0,0,0,0,0,0,0,0,0,0,0,0,0,0,0,0,0,0,0,0,0,0,-0.2189,-0.219,0,-0.227,-0.2271,-0.2273,-0.2328,-0.2328,-0.2327,-0.2327,-0.2269,-0.2268,-0.2267,0,0,0,0,0,0,0,0,0,0,0,0,0,-0.2021,-0.2025,-0.2189,-0.219,-0.219,-0.2269,-0.2271,-0.2273,-0.2328,-0.2328,-0.2327,-0.2327,-0.2269,-0.2268,-0.2266,0,0,0,0,0,0,0,0,0,0,0,0,0,-0.2105,-0.2026,-0.2189,-0.222,-0.2223,-0.2269,-0.2271,-0.2274,-0.2328,-0.2328,-0.2327,-0.2326,-0.227,-0.2268,-0.2266,-0.2267,0,0,-0.2261,-0.226,0,0,0,0,0,0,0,0,-0.2101,-0.2113,-0.2216,-0.2218,-0.2221,-0.2281,-0.219,-0.2262,-0.2328,-0.2298,-0.2327,-0.2326,-0.2254,-0.2254,-0.2285,-0.2265,-0.2262,-0.2261,-0.226,-0.2259,-0.2258,0,0,0,0,0,0,0,-0.2095,-0.2109,-0.223,-0.2216,-0.2219,-0.2208,-0.2221,-0.2205,-0.2283,-0.23,-0.2302,-0.2297,-0.2256,-0.2287,-0.2283,-0.2261,-0.2261,-0.2259,-0.2258,-0.2257,-0.2253,-0.2253,0,0,0,0,0,0,-0.2072,-0.2105,-0.2227,-0.2232,-0.2148,-0.2211,-0.2226,-0.2269,-0.2286,-0.2287,-0.2298,-0.2299,-0.229,-0.2285,-0.2281,-0.2318,-0.2259,-0.2257,-0.2256,-0.2252,-0.2253,-0.2254,0,0,0,0,0,0,-0.2069,-0.2085,-0.2224,-0.2159,-0.2175,-0.2214,-0.2263,-0.2271,-0.231,-0.2284,-0.2284,-0.2327,-0.2289,-0.2284,-0.2279,-0.2314,-0.2256,-0.2255,-0.2251,-0.2252,-0.2253,-0.2367,0,0,0,0,0,0,-0.2065,-0.2084,-0.2109,-0.216,-0.2178,-0.2265,-0.2262,-0.2273,-0.2303,-0.2307,-0.2308,-0.2303,-0.2289,-0.2282,-0.2277,-0.231,-0.2253,-0.2249,-0.2251,-0.2253,-0.2362,-0.2372,-0.2381,0,0,0,0,0,-0.206,-0.2087,-0.2111,-0.2125,-0.2213,-0.2265,-0.2276,-0.2304,-0.2305,-0.2336,-0.2329,-0.2303,-0.2289,-0.2282,-0.2276,-0.2309,-0.2249,-0.2251,-0.2253,-0.2358,-0.237,-0.2381,0,0,0,0,0,0,-0.203,-0.2096,-0.2123,-0.2174,-0.2222,-0.2271,-0.2283,-0.2311,-0.2338,-0.2327,-0.2315,-0.231,-0.2322,-0.2292,-0.2283,-0.231,-0.2265,-0.2266,-0.2347,-0.2358,-0.2367,-0.235,-0.2252,0,0,0,0,0,-0.2034,-0.2068,-0.2138,-0.2172,-0.2197,-0.2246,-0.2268,-0.2295,-0.2317,-0.2332,-0.2338,-0.2327,-0.2328,-0.2322,-0.2315,-0.2325,-0.229,-0.234,-0.235,-0.2358,-0.2339,-0.2343,-0.2351,-0.2261,-0.2261,-0.2261,0,0,-0.2025,-0.2063,-0.2083,-0.2165,-0.2199,-0.2246,-0.2261,-0.2297,-0.234,-0.2313,-0.2363,-0.2359,-0.2336,-0.2361,-0.2362,-0.2338,-0.2366,-0.2361,-0.2368,-0.2344,-0.2346,-0.2354,-0.2362,-0.2262,-0.2262,-0.2262,0,0,-0.2016,-0.2069,-0.21,-0.2144,-0.2195,-0.2233,-0.2247,-0.2316,-0.2357,-0.2402,-0.2394,-0.2408,-0.2415,-0.2417,-0.2413,-0.246,-0.2418,-0.2462,-0.2496,-0.2502,-0.251,-0.2516,-0.2491,-0.2494,-0.2466,-0.2466,-0.2466,0,-0.2003,-0.2062,-0.2113,-0.2154,-0.218,-0.2231,-0.2273,-0.2327,-0.2388,-0.2415,-0.2421,-0.2465,-0.2443,-0.2476,-0.2491,-0.2483,-0.2466,-0.2464,-0.2516,-0.2521,-0.2525,-0.2498,-0.25,-0.2472,-0.2471,-0.247,-0.247,0,-0.2018,-0.2072,-0.2085,-0.2162,-0.2208,-0.2238,-0.2318,-0.2365,-0.241,-0.2464,-0.2527,-0.2536,-0.255,-0.2566,-0.2537,-0.2569,-0.2541,-0.2534,-0.2492,-0.2542,-0.251,-0.251,-0.248,-0.2478,-0.2476,-0.2475,0,0,-0.1978,-0.2078,-0.2086,-0.2127,-0.221,-0.2251,-0.2317,-0.2399,-0.2443,-0.2525,-0.2586,-0.2618,-0.2633,-0.2625,-0.2624,-0.2631,-0.2648,-0.2592,-0.259,-0.2575,-0.2642,-0.2522,-0.2509,-0.2661,-0.2662,-0.2662,-0.261,0,-0.1976,-0.2046,-0.2101,-0.2169,-0.2215,-0.2277,-0.2344,-0.2421,-0.2487,-0.2559,-0.2609,-0.266,-0.2659,-0.267,-0.2685,-0.2653,-0.2651,-0.266,-0.2587,-0.2584,-0.2478,-0.2506,-0.2332,-0.2262,-0.261,-0.261,-0.261,0,-0.1983,-0.2026,-0.2092,-0.219,-0.2217,-0.2261,-0.2354,-0.2423,-0.2524,-0.2578,-0.2646,-0.2685,-0.2718,-0.2708,-0.2706,-0.2716,-0.267,-0.2654,-0.2652,-0.249,-0.2463,-0.2265,-0.2248,-0.2608,-0.2609,-0.2609,-0.2609,0,-0.1928,-0.2028,-0.2073,-0.2103,-0.2217,-0.2251,-0.231,-0.2417,-0.2465,-0.2579,-0.2599,-0.2696,-0.2692,-0.2714,-0.2663,-0.2689,-0.2636,-0.2668,-0.2525,-0.2516,-0.232,-0.2292,-0.2646,-0.2646,-0.2646,-0.2646,-0.2647,0,-0.1902,-0.1942,-0.2049,-0.2064,-0.2116,-0.2223,-0.2278,-0.2353,-0.2445,-0.2481,-0.2592,-0.261,-0.2685,-0.2668,-0.2665,-0.2571,-0.2633,-0.2514,-0.2493,-0.2354,-0.2331,-0.259,-0.2585,-0.2644,-0.2645,-0.2645,-0.2646,0,-0.1837,-0.1907,-0.196,-0.2062,-0.2088,-0.2127,-0.2214,-0.2252,-0.2354,-0.2391,-0.2416,-0.2508,-0.2501,-0.2542,-0.2535,-0.251,-0.2481,-0.242,-0.2233,-0.219,-0.2366,-0.2367,-0.2297,-0.2292,-0.2288,-0.2285,-0.2282,0,-0.181,-0.1831,-0.192,-0.1929,-0.1964,-0.2026,-0.2056,-0.2181,-0.2211,-0.2313,-0.2306,-0.2329,-0.2321,-0.228,-0.2262,-0.2236,-0.2324,-0.2032,-0.2051,-0.2343,-0.233,-0.2337,-0.2343,-0.1846,-0.184,-0.1835,-0.1831,0,-0.1737,-0.1771,-0.1798,-0.1814,-0.1839,-0.1876,-0.1927,-0.1935,-0.2069,-0.2091,-0.2112,-0.2121,-0.2092,-0.1992,-0.1941,-0.1915,-0.2045,-0.1926,-0.2271,-0.1958,-0.1912,-0.1902,-0.1923,-0.1786,-0.179,-0.1794,-0.1796,-0.1798,-0.1662,-0.1658,-0.1682,-0.1687,-0.1709,-0.1714,-0.1698,-0.1756,-0.1773,-0.1797,-0.1875,-0.1833,-0.1842,-0.1695,-0.1623,-0.1579,-0.1736,-0.1681,-0.17,-0.1723,-0.1676,-0.1625,-0.1436,-0.1438,-0.144,-0.1442,-0.1443,0,-0.1565,-0.1559,-0.155,-0.1551,-0.1519,-0.1579,-0.1594,-0.1563,-0.1533,-0.1574,-0.1571,-0.1427,-0.135,-0.1375,-0.1242,-0.1223,-0.1248,-0.1172,-0.121,-0.1253,-0.1292,-0.1228,-0.0866,-0.0865,-0.0863,-0.0862,0,0,-0.1505,-0.146,-0.1452,-0.1359,-0.1354,-0.1285,-0.1267,-0.1243,-0.1244,-0.1191,-0.117,-0.127,-0.1317,-0.1089,-0.1039,-0.093,-0.1084,-0.0881,-0.134,-0.1427,-0.1464,-0.1575,-0.1522,0,0,0,0,0]},{"header":{"parameterUnit":"m.s-1","parameterCategory":2,"la1":30.2991,"la2":30.254,"lo1":-89.0895,"lo2":-89.0444,"dy":0.0017,"dx":0.0017,"nx":28,"ny":28,"refTime":"2025-09-01T03:00:00:Z","depth":"2","parameterNumber":3,"parameterNumberName":"V-component_of_CURRENTS"},"data":[0,0,0,0,0,0,0,0,0,0,0,0,0,0,0,0,0,0,0,0,0,0,0,0,0,0,0,0,0,0,0,0,0,0,0,0,0,0,0,0,0,0,0,0,0,0,0,0,0,0,0,0,0,0,0,0,0,0,-0.0092,-0.0091,0,0.0025,0.0027,0.0028,0.0078,0.0077,0.0077,0.0077,0.0324,0.033,0.0337,0,0,0,0,0,0,0,0,0,0,0,0,0,-0.0113,-0.0114,-0.0092,-0.009,-0.0089,0.0025,0.0027,0.0029,0.0078,0.0077,0.0077,0.0077,0.0321,0.033,0.0338,0,0,0,0,0,0,0,0,0,0,0,0,0,-0.006,-0.0114,-0.0092,-0.0052,-0.0047,0.0025,0.0027,0.0029,0.0078,0.0077,0.0077,0.0076,0.0319,0.0329,0.0339,0.0413,0,0,0.0371,0.0375,0,0,0,0,0,0,0,0,-0.0063,-0.0059,-0.0059,-0.0054,-0.0049,0.0035,0.011,0.0163,0.0078,0.0032,0.0077,0.0076,0.0239,0.0256,0.0279,0.0424,0.0435,0.0371,0.0378,0.0382,0.0385,0,0,0,0,0,0,0,-0.0067,-0.0063,-0.0044,-0.0058,-0.0051,0.0015,0.0021,0.0121,0.014,0.0036,0.0039,0.0051,0.0243,0.0269,0.0285,0.0438,0.0371,0.038,0.0387,0.0391,0.0513,0.0511,0,0,0,0,0,0,-0.0092,-0.0067,-0.0048,-0.0041,-0.0059,0.0015,0.0022,0.001,0.0136,0.0154,0.0051,0.0052,0.0251,0.0273,0.0294,0.0304,0.0382,0.0392,0.0398,0.0516,0.0513,0.051,0,0,0,0,0,0,-0.0093,-0.0092,-0.0053,-0.005,-0.0041,0.0015,0.0002,0.0012,0.0023,0.0146,0.0166,0.0049,0.0252,0.028,0.0315,0.0317,0.0396,0.0406,0.052,0.0515,0.0511,0.0379,0,0,0,0,0,0,-0.0095,-0.0094,-0.0108,-0.0053,-0.0042,-0.0034,0.0003,0.0015,0.0031,0.0034,0.0152,0.0175,0.0253,0.0299,0.0326,0.0333,0.0414,0.0523,0.0518,0.0512,0.0387,0.037,0.0356,0,0,0,0,0,-0.0096,-0.0117,-0.0111,-0.0107,-0.0066,-0.0035,-0.0024,0.0018,0.0031,0.0027,0.007,0.017,0.0283,0.0304,0.0337,0.0347,0.0526,0.0519,0.0513,0.0394,0.0373,0.0357,0,0,0,0,0,0,-0.0143,-0.0112,-0.0104,-0.0119,-0.0091,-0.0028,-0.0019,0.0004,0.0038,0.0043,0.0142,0.0167,0.0193,0.0274,0.0294,0.0355,0.042,0.0419,0.0318,0.03,0.0285,0.0318,0.0422,0,0,0,0,0,-0.016,-0.0163,-0.0128,-0.0141,-0.013,-0.0079,-0.006,-0.0035,0.0005,0.0019,0.0091,0.0156,0.0196,0.0245,0.0299,0.0357,0.0428,0.0375,0.036,0.0347,0.0388,0.0446,0.0441,0.0488,0.0488,0.0488,0,0,-0.0182,-0.0164,-0.0168,-0.0149,-0.0119,-0.0108,-0.0069,-0.0049,-0.0038,0.0047,0.0076,0.0107,0.0187,0.0218,0.0242,0.0292,0.0357,0.0338,0.0327,0.0377,0.0439,0.0435,0.0432,0.0483,0.0484,0.0485,0,0,-0.0219,-0.0214,-0.0226,-0.0204,-0.0169,-0.0134,-0.014,-0.0091,-0.0071,-0.0047,-0.001,0.0009,0.0107,0.015,0.0187,0.0128,0.0255,0.0139,0.013,0.0182,0.018,0.018,0.0216,0.0221,0.0155,0.0155,0.0155,0,-0.0249,-0.0259,-0.0225,-0.0225,-0.0209,-0.0157,-0.0163,-0.0129,-0.008,-0.0061,-0.0056,0.0023,0.0081,0.0121,0.0084,0.0105,0.0148,0.0196,0.0167,0.0168,0.0171,0.0209,0.0215,0.0148,0.0149,0.015,0.015,0,-0.0282,-0.0293,-0.0295,-0.028,-0.0262,-0.0255,-0.0209,-0.019,-0.0162,-0.0123,-0.0097,-0.005,0.0009,0.0006,0.0039,0.0071,0.0096,0.0121,0.0224,0.0159,0.0201,0.021,0.0138,0.014,0.0142,0.0144,0,0,-0.0349,-0.0326,-0.0329,-0.0334,-0.0289,-0.0282,-0.0258,-0.022,-0.0206,-0.016,-0.0137,-0.0099,-0.0065,-0.0024,0.0007,0.0058,0.0073,0.0099,0.0105,0.0154,0.0181,0.0192,0.0204,0.0094,0.0096,0.0098,0.0188,0,-0.0388,-0.0411,-0.0378,-0.0397,-0.0406,-0.0345,-0.033,-0.0286,-0.0242,-0.0205,-0.014,-0.0115,-0.0078,-0.0071,-0.0014,0.0052,0.01,0.0047,0.0225,0.023,0.0264,0.0217,0.0193,0.0272,0.0198,0.02,0.0201,0,-0.0436,-0.0441,-0.0472,-0.046,-0.0458,-0.0454,-0.0415,-0.0393,-0.0313,-0.0279,-0.0215,-0.0162,-0.0086,-0.0062,0.0078,0.0042,0.0112,0.0166,0.0171,0.0256,0.0261,0.0334,0.0294,0.0218,0.0217,0.0215,0.0214,0,-0.0505,-0.051,-0.0539,-0.0533,-0.0507,-0.0504,-0.0484,-0.0419,-0.0401,-0.0321,-0.0298,-0.019,-0.015,-0.003,0.0093,0.0088,0.0245,0.0251,0.033,0.033,0.039,0.0393,0.0357,0.0357,0.0356,0.0356,0.0356,0,-0.0558,-0.0582,-0.0577,-0.0589,-0.0618,-0.0575,-0.0581,-0.0538,-0.048,-0.0457,-0.0345,-0.0304,-0.0138,-0.0027,0.0091,0.0245,0.025,0.0343,0.0365,0.0333,0.033,0.0361,0.0361,0.036,0.0359,0.0358,0.0358,0,-0.0625,-0.0621,-0.0659,-0.0653,-0.0654,-0.0677,-0.0653,-0.0648,-0.0584,-0.0548,-0.0525,-0.0383,-0.023,-0.0064,0.0124,0.0228,0.0375,0.0423,0.0367,0.038,0.0425,0.0415,0.0531,0.0532,0.0534,0.0535,0.0535,0,-0.0656,-0.0686,-0.0719,-0.0743,-0.0741,-0.0759,-0.0762,-0.071,-0.0693,-0.0593,-0.0577,-0.0429,-0.0301,-0.0018,0.0186,0.0405,0.0405,0.0494,0.049,0.0439,0.0448,0.0437,0.0426,0.0493,0.0494,0.0494,0.0494,0,-0.0715,-0.0736,-0.0764,-0.0815,-0.0839,-0.086,-0.0855,-0.086,-0.0786,-0.0733,-0.063,-0.0521,-0.0246,-0.0001,0.0269,0.0392,0.0462,0.0507,0.0491,0.0446,0.0409,0.0415,0.0406,0.0497,0.0497,0.0497,0.0497,0.0497,-0.0755,-0.0801,-0.0842,-0.0884,-0.0915,-0.0938,-0.0945,-0.0919,-0.0886,-0.0779,-0.0677,-0.0482,-0.0253,0.0145,0.0334,0.0508,0.0511,0.0561,0.0558,0.0555,0.0527,0.0494,0.0592,0.0593,0.0593,0.0593,0.0593,0,-0.08,-0.0845,-0.0896,-0.0948,-0.0982,-0.0979,-0.0983,-0.0959,-0.091,-0.0786,-0.0653,-0.0385,-0.0107,0.013,0.0412,0.0577,0.0565,0.0597,0.0551,0.0547,0.0544,0.0514,0.0577,0.0578,0.0578,0.0578,0,0,-0.0819,-0.0891,-0.0918,-0.0984,-0.1012,-0.1033,-0.103,-0.0977,-0.088,-0.0743,-0.0591,-0.0382,-0.009,0.0103,0.031,0.0453,0.0455,0.0463,0.046,0.0379,0.0374,0.0511,0.046,0,0,0,0,0]}],[{"header":{"parameterUnit":"m.s-1","parameterCategory":2,"la1":30.2991,"la2":30.254,"lo1":-89.0895,"lo2":-89.0444,"dy":0.0017,"dx":0.0017,"nx":28,"ny":28,"refTime":"2025-09-01T03:00:00:Z","depth":"4","parameterNumber":2,"parameterNumberName":"U-component_of_CURRENTS"},"data":[0,0,0,0,0,0,0,0,0,0,0,0,0,0,0,0,0,0,0,0,0,0,0,0,0,0,0,0,0,0,0,0,0,0,0,0,0,0,0,0,0,0,0,0,0,0,0,0,0,0,0,0,0,0,0,0,0,0,-0.1036,-0.1036,0,-0.1041,-0.1041,-0.1041,-0.1051,-0.1051,-0.1051,-0.1052,-0.113,-0.1132,-0.1134,0,0,0,0,0,0,0,0,0,0,0,0,0,-0.1006,-0.1006,-0.1036,-0.1036,-0.1036,-0.1041,-0.1041,-0.1041,-0.1051,-0.1051,-0.1051,-0.1052,-0.113,-0.1132,-0.1134,0,0,0,0,0,0,0,0,0,0,0,0,0,-0.1015,-0.1007,-0.1036,-0.1042,-0.1042,-0.1041,-0.1041,-0.1041,-0.1051,-0.1051,-0.1052,-0.1052,-0.1129,-0.1132,-0.1135,-0.1145,0,0,-0.1143,-0.1144,0,0,0,0,0,0,0,0,-0.1015,-0.1017,-0.1041,-0.1041,-0.1042,-0.1046,-0.106,-0.108,-0.1051,-0.1047,-0.1052,-0.1052,-0.1109,-0.1113,-0.1112,-0.1149,-0.1152,-0.1143,-0.1145,-0.1146,-0.1147,0,0,0,0,0,0,0,-0.1014,-0.1016,-0.1037,-0.1041,-0.1042,-0.1035,-0.1037,-0.1063,-0.1077,-0.1047,-0.1048,-0.105,-0.111,-0.1109,-0.1114,-0.1153,-0.1143,-0.1146,-0.1148,-0.1149,-0.1258,-0.1259,0,0,0,0,0,0,-0.1016,-0.1016,-0.1037,-0.1038,-0.1029,-0.1035,-0.1037,-0.1044,-0.1075,-0.108,-0.1049,-0.105,-0.1104,-0.1111,-0.1117,-0.118,-0.1146,-0.1149,-0.1151,-0.1257,-0.1258,-0.1259,0,0,0,0,0,0,-0.1015,-0.1018,-0.1037,-0.1027,-0.1029,-0.1035,-0.1043,-0.1044,-0.1063,-0.1076,-0.1082,-0.107,-0.1105,-0.1113,-0.1151,-0.1181,-0.115,-0.1153,-0.1255,-0.1257,-0.1259,-0.1275,0,0,0,0,0,0,-0.1014,-0.1018,-0.1035,-0.1027,-0.1029,-0.1055,-0.1043,-0.1044,-0.1062,-0.1064,-0.1095,-0.1101,-0.1106,-0.1146,-0.1154,-0.1185,-0.1155,-0.1254,-0.1256,-0.1258,-0.1273,-0.1277,-0.1281,0,0,0,0,0,-0.1013,-0.1038,-0.1036,-0.1039,-0.105,-0.1056,-0.1057,-0.1062,-0.1063,-0.1079,-0.1092,-0.1102,-0.1166,-0.1149,-0.1158,-0.119,-0.1253,-0.1255,-0.1258,-0.1271,-0.1276,-0.1281,0,0,0,0,0,0,-0.1035,-0.104,-0.1039,-0.1064,-0.1067,-0.1058,-0.1079,-0.1075,-0.1096,-0.1107,-0.1112,-0.1119,-0.1164,-0.1176,-0.1157,-0.1229,-0.1214,-0.1218,-0.1221,-0.1226,-0.123,-0.1225,-0.1157,0,0,0,0,0,-0.1046,-0.1068,-0.1063,-0.1085,-0.1092,-0.1088,-0.1095,-0.1097,-0.1106,-0.1116,-0.1136,-0.116,-0.1178,-0.1201,-0.1222,-0.1263,-0.1274,-0.1291,-0.1295,-0.1298,-0.1301,-0.1338,-0.1345,-0.1268,-0.1268,-0.1268,0,0,-0.106,-0.1066,-0.1079,-0.1092,-0.1097,-0.1114,-0.1094,-0.1116,-0.1131,-0.1124,-0.1167,-0.1176,-0.1191,-0.1229,-0.1252,-0.1247,-0.1328,-0.1302,-0.1304,-0.1305,-0.1342,-0.1349,-0.1355,-0.127,-0.127,-0.127,0,0,-0.1086,-0.1106,-0.1126,-0.1136,-0.115,-0.1151,-0.1162,-0.1169,-0.1178,-0.1208,-0.1204,-0.1228,-0.127,-0.1278,-0.1286,-0.1329,-0.1343,-0.1346,-0.1368,-0.1403,-0.141,-0.1416,-0.144,-0.1448,-0.1352,-0.1352,-0.1352,0,-0.11,-0.1124,-0.1133,-0.1154,-0.1169,-0.1171,-0.1193,-0.1203,-0.1221,-0.1237,-0.1234,-0.1283,-0.1292,-0.1325,-0.1328,-0.1339,-0.1356,-0.1345,-0.1408,-0.1414,-0.1419,-0.1443,-0.1452,-0.1353,-0.1353,-0.1353,-0.1353,0,-0.1124,-0.1157,-0.1175,-0.1202,-0.1223,-0.1246,-0.1257,-0.1287,-0.13,-0.1305,-0.1347,-0.1348,-0.1378,-0.1383,-0.1363,-0.1408,-0.1407,-0.1403,-0.1392,-0.1428,-0.1451,-0.146,-0.1355,-0.1354,-0.1354,-0.1354,0,0,-0.1106,-0.1177,-0.1183,-0.1214,-0.1251,-0.1271,-0.1312,-0.1341,-0.1373,-0.1394,-0.1432,-0.144,-0.1442,-0.145,-0.1438,-0.1455,-0.1495,-0.1442,-0.1443,-0.146,-0.1572,-0.146,-0.1458,-0.1504,-0.1505,-0.1507,-0.1573,0,-0.1115,-0.1173,-0.1202,-0.1264,-0.1296,-0.1328,-0.1363,-0.1399,-0.1425,-0.1469,-0.1473,-0.1509,-0.1468,-0.1485,-0.1494,-0.1496,-0.1519,-0.1477,-0.1541,-0.1543,-0.1433,-0.1464,-0.1512,-0.1579,-0.1581,-0.1582,-0.1583,0,-0.1107,-0.1157,-0.1219,-0.1305,-0.1321,-0.1363,-0.1433,-0.1466,-0.152,-0.1541,-0.1575,-0.1583,-0.1607,-0.1571,-0.16,-0.1577,-0.1577,-0.1574,-0.1577,-0.147,-0.1445,-0.1537,-0.1598,-0.1597,-0.1596,-0.1595,-0.1594,0,-0.1072,-0.1163,-0.1221,-0.1248,-0.1342,-0.1385,-0.1434,-0.1494,-0.1533,-0.1598,-0.164,-0.1663,-0.1696,-0.1695,-0.168,-0.1652,-0.1714,-0.1683,-0.1587,-0.158,-0.1654,-0.1647,-0.1719,-0.1719,-0.1719,-0.1719,-0.1719,0,-0.1047,-0.1096,-0.1222,-0.125,-0.1335,-0.1396,-0.1474,-0.152,-0.1594,-0.1638,-0.168,-0.1709,-0.1731,-0.176,-0.1726,-0.1679,-0.1762,-0.1593,-0.1589,-0.166,-0.1653,-0.166,-0.1652,-0.1721,-0.1721,-0.172,-0.172,0,-0.0985,-0.1063,-0.1146,-0.1272,-0.132,-0.1382,-0.1508,-0.1548,-0.1629,-0.169,-0.1719,-0.1779,-0.1789,-0.1805,-0.1816,-0.174,-0.1711,-0.1683,-0.1771,-0.1772,-0.1539,-0.1532,-0.1565,-0.1562,-0.1559,-0.1556,-0.1554,0,-0.0958,-0.0993,-0.1155,-0.1217,-0.128,-0.1389,-0.1445,-0.155,-0.1585,-0.1702,-0.1712,-0.1783,-0.1795,-0.1728,-0.1747,-0.1705,-0.1672,-0.1665,-0.1569,-0.153,-0.1524,-0.1521,-0.1518,-0.1549,-0.1549,-0.1548,-0.1547,0,-0.09,-0.0964,-0.1035,-0.1167,-0.1257,-0.1346,-0.1435,-0.146,-0.1556,-0.1661,-0.1652,-0.1648,-0.1666,-0.1639,-0.1642,-0.1601,-0.1664,-0.1633,-0.1638,-0.1547,-0.1512,-0.1508,-0.1508,-0.1537,-0.1539,-0.154,-0.154,0,-0.0856,-0.0891,-0.099,-0.1102,-0.1206,-0.1251,-0.1323,-0.136,-0.1415,-0.1528,-0.1525,-0.1577,-0.1649,-0.1589,-0.1581,-0.1542,-0.1486,-0.1418,-0.1432,-0.1444,-0.1367,-0.1302,-0.1263,0,0,0,0,0,-0.0799,-0.082,-0.0916,-0.1022,-0.1118,-0.1173,-0.1282,-0.1344,-0.145,-0.1398,-0.1453,-0.1447,-0.1421,-0.1456,-0.138,-0.1515,-0.1497,-0.1422,-0.1428,-0.1481,-0.1493,-0.141,0,0,0,0,0,0,-0.0758,-0.0815,-0.0874,-0.0926,-0.0972,-0.1053,-0.1109,-0.1189,-0.1167,-0.1276,-0.1265,-0.135,-0.1344,-0.1431,-0.1345,-0.1354,-0.1325,-0.1464,-0.146,-0.1474,-0.1485,-0.1494,-0.1413,0,0,0,0,0]},{"header":{"parameterUnit":"m.s-1","parameterCategory":2,"la1":30.2991,"la2":30.254,"lo1":-89.0895,"lo2":-89.0444,"dy":0.0017,"dx":0.0017,"nx":28,"ny":28,"refTime":"2025-09-01T03:00:00:Z","depth":"4","parameterNumber":3,"parameterNumberName":"V-component_of_CURRENTS"},"data":[0,0,0,0,0,0,0,0,0,0,0,0,0,0,0,0,0,0,0,0,0,0,0,0,0,0,0,0,0,0,0,0,0,0,0,0,0,0,0,0,0,0,0,0,0,0,0,0,0,0,0,0,0,0,0,0,0,0,0.0038,0.0038,0,0.0073,0.0073,0.0074,0.0115,0.0115,0.0116,0.0116,0.0127,0.0126,0.0126,0,0,0,0,0,0,0,0,0,0,0,0,0,0.0019,0.0019,0.0038,0.0038,0.0039,0.0073,0.0073,0.0074,0.0115,0.0115,0.0116,0.0117,0.0127,0.0126,0.0126,0,0,0,0,0,0,0,0,0,0,0,0,0,0.0038,0.0019,0.0038,0.0062,0.0065,0.0072,0.0073,0.0074,0.0115,0.0115,0.0116,0.0117,0.0127,0.0126,0.0126,0.0108,0,0,0.0125,0.0125,0,0,0,0,0,0,0,0,0.0037,0.0039,0.0059,0.0061,0.0064,0.0089,0.007,0.0084,0.0114,0.0097,0.0116,0.0117,0.011,0.0112,0.0118,0.0108,0.0109,0.0125,0.0125,0.0125,0.0124,0,0,0,0,0,0,0,0.0036,0.0038,0.0053,0.0059,0.0062,0.0076,0.0079,0.0073,0.0099,0.0098,0.0101,0.0103,0.0112,0.0118,0.0119,0.0109,0.0125,0.0125,0.0124,0.0124,0.0114,0.0114,0,0,0,0,0,0,0.0028,0.0037,0.0052,0.0054,0.0051,0.0075,0.0079,0.0081,0.01,0.0103,0.0102,0.0105,0.0119,0.0119,0.0119,0.011,0.0125,0.0124,0.0124,0.0114,0.0114,0.0114,0,0,0,0,0,0,0.0027,0.0029,0.005,0.0045,0.0049,0.0074,0.0076,0.0081,0.0093,0.0103,0.0106,0.0109,0.0119,0.0119,0.0115,0.011,0.0124,0.0124,0.0114,0.0114,0.0114,0.0085,0,0,0,0,0,0,0.0027,0.0029,0.0023,0.0045,0.0049,0.0051,0.0075,0.0081,0.0092,0.0096,0.0109,0.0111,0.012,0.0115,0.0114,0.011,0.0123,0.0114,0.0114,0.0114,0.0086,0.0084,0.0082,0,0,0,0,0,0.0026,0.001,0.0022,0.0024,0.0041,0.005,0.0054,0.0075,0.0091,0.009,0.0102,0.0111,0.0115,0.0114,0.0114,0.0109,0.0114,0.0114,0.0114,0.0087,0.0084,0.0082,0,0,0,0,0,0,0.0001,0.0014,0.0027,0.0018,0.0033,0.0057,0.0052,0.0073,0.0083,0.0084,0.0102,0.0104,0.0101,0.0107,0.0107,0.0108,0.0119,0.0118,0.0098,0.0096,0.0094,0.0084,0.0123,0,0,0,0,0,-0.0008,-0.0017,0.0005,-0.0003,0.0001,0.0028,0.0033,0.005,0.0063,0.007,0.0085,0.0095,0.0098,0.0099,0.0102,0.0095,0.0117,0.0095,0.0093,0.0091,0.0083,0.0118,0.0119,0.0113,0.0113,0.0113,0,0,-0.002,-0.0015,-0.0019,-0.0009,0.0003,-0.0001,0.0033,0.0037,0.004,0.0066,0.007,0.0085,0.0094,0.0091,0.0091,0.0097,0.0106,0.0091,0.0089,0.0082,0.0118,0.0119,0.012,0.0113,0.0113,0.0113,0,0,-0.0053,-0.0043,-0.0063,-0.0055,-0.0043,-0.0026,-0.0025,0.0001,0.0018,0.0022,0.0045,0.0058,0.0062,0.0075,0.0078,0.0066,0.0094,0.007,0.005,0.0084,0.0085,0.0086,0.0121,0.0126,0.007,0.007,0.007,0,-0.0068,-0.0085,-0.0066,-0.0081,-0.008,-0.004,-0.0054,-0.0036,-0.001,-0.0,0.0017,0.0043,0.0054,0.0055,0.0054,0.0061,0.0086,0.0057,0.0082,0.0083,0.0084,0.0121,0.0126,0.0068,0.0068,0.0069,0.0069,0,-0.011,-0.0125,-0.0137,-0.0141,-0.0137,-0.0144,-0.0115,-0.0102,-0.0074,-0.0048,-0.003,-0.0003,0.0015,0.0025,0.0032,0.0046,0.0063,0.0075,0.0086,0.0083,0.0122,0.0127,0.0066,0.0067,0.0067,0.0068,0,0,-0.0136,-0.0163,-0.0166,-0.0183,-0.0169,-0.0171,-0.0167,-0.015,-0.0145,-0.0103,-0.0093,-0.0068,-0.0034,-0.0027,-0.0001,0.0027,0.0063,0.0051,0.0053,0.0083,0.0142,0.014,0.0147,0.0081,0.0082,0.0082,0.0167,0,-0.0172,-0.0225,-0.0218,-0.0255,-0.0277,-0.0243,-0.0243,-0.022,-0.0186,-0.0164,-0.0115,-0.0097,-0.0058,-0.0048,-0.0011,0.004,0.0076,0.0039,0.0142,0.0145,0.0142,0.0152,0.0085,0.0172,0.0173,0.0174,0.0175,0,-0.0206,-0.0241,-0.0295,-0.0319,-0.0323,-0.0333,-0.0322,-0.0316,-0.0271,-0.0242,-0.02,-0.0155,-0.0107,-0.0074,0.0029,0.0005,0.0068,0.0115,0.012,0.0129,0.0154,0.0175,0.0186,0.0185,0.0184,0.0184,0.0183,0,-0.0239,-0.0285,-0.0335,-0.0345,-0.0366,-0.0376,-0.0374,-0.0342,-0.0336,-0.029,-0.027,-0.0199,-0.0159,-0.0074,0.0039,0.0033,0.0157,0.0163,0.0225,0.0226,0.0215,0.0213,0.0236,0.0236,0.0235,0.0235,0.0235,0,-0.0275,-0.031,-0.036,-0.0389,-0.0438,-0.0425,-0.045,-0.0431,-0.0402,-0.0392,-0.0313,-0.0279,-0.0156,-0.0063,0.0029,0.0151,0.016,0.0221,0.0246,0.0202,0.0198,0.022,0.0217,0.0238,0.0238,0.0237,0.0236,0,-0.0298,-0.0331,-0.0398,-0.0447,-0.0462,-0.0496,-0.0511,-0.0518,-0.0476,-0.046,-0.0445,-0.0334,-0.0208,-0.0076,0.007,0.0141,0.0251,0.0293,0.0242,0.0263,0.0297,0.0292,0.0357,0.0358,0.0358,0.0359,0.0359,0,-0.0312,-0.0354,-0.0451,-0.0498,-0.0524,-0.0566,-0.0588,-0.0566,-0.056,-0.0486,-0.0474,-0.0353,-0.0264,-0.0046,0.0081,0.0262,0.0285,0.0339,0.0308,0.0291,0.0309,0.0303,0.0297,0.036,0.036,0.036,0.036,0,-0.0341,-0.0385,-0.0448,-0.0554,-0.0605,-0.0649,-0.0669,-0.0669,-0.0623,-0.0591,-0.0481,-0.0357,-0.0212,-0.0046,0.0104,0.0228,0.0297,0.0345,0.0344,0.0315,0.0295,0.0311,0.0305,0.0362,0.0362,0.0362,0.0361,0,-0.0358,-0.0416,-0.051,-0.0598,-0.0669,-0.0703,-0.0712,-0.068,-0.0663,-0.0563,-0.0531,-0.0359,-0.0258,-0.0063,0.0071,0.0198,0.0218,0.0243,0.0248,0.0247,0.0186,0.0142,0.0184,0,0,0,0,0,-0.036,-0.0434,-0.0537,-0.0636,-0.0705,-0.0735,-0.0749,-0.0738,-0.0693,-0.0619,-0.0567,-0.0424,-0.0204,-0.0105,0.0022,0.0057,0.0221,0.0206,0.0248,0.0372,0.037,0.0315,0,0,0,0,0,0,-0.0366,-0.0461,-0.0542,-0.0644,-0.0704,-0.076,-0.0767,-0.0737,-0.0679,-0.0617,-0.0494,-0.0412,-0.0197,-0.0275,0.0019,0.0058,0.0096,0.0316,0.0318,0.0373,0.0371,0.0369,0.0313,0,0,0,0,0]}]]